Regional Weather Roundup
Issued by NWS

Home | Current Version | Previous Version | Graphics & Text | Print | Product List | Glossary Off
Versions: 1 2 3 4 5 6 7 8 9 10 11 12 13 14 15 16 17 18 19 20 21 22 23 24 25 26 27 28 29 30 31 32 33 34 35 36 37 38 39 40 41 42 43 44 45 46 47 48 49 50

000
ASUS43 KLSX 170707
RWRMO

WEATHER SUMMARY FOR MISSOURI
NATIONAL WEATHER SERVICE SPRINGFIELD MO
200 AM CDT WED SEP 17 2014

NOTE: "FAIR" INDICATES FEW OR NO CLOUDS BELOW 12,000 FEET WITH NO
       SIGNIFICANT WEATHER AND/OR OBSTRUCTIONS TO VISIBILITY.
       CURRENT SKY AND/OR WEATHER CONDITIONS ARE NOT AVAILABLE FOR
       CHILLICOTHE AND FARMINGTON.

MOZ001>031-035>038-043-044-053-054-170800-
...NORTHERN AND WESTERN MISSOURI...

CITY           SKY/WX    TMP DP  RH WIND       PRES   REMARKS
KANSAS CTY INT CLOUDY    64  58  80 SE8       29.99F
KANSAS C DTWN  CLOUDY    66  58  75 S5        30.00F
LEE`S SUMMIT   CLOUDY    63  58  83 S5        30.01F
ST JOSEPH      CLOUDY    62  57  83 CALM      29.99F
CHILLICOTHE      N/A     59  54  83 SE5       30.03F
KIRKSVILLE     PTCLDY    52  50  93 SE6       30.05F

$$
MOZ066>068-077>081-088>096-101>105-170800-
...SOUTHWEST MISSOURI...

CITY           SKY/WX    TMP DP  RH WIND       PRES   REMARKS
SPRINGFIELD    CLOUDY    65  63  93 S13       30.04S FOG
JOPLIN         PTCLDY    65  64  97 SE7       30.01F

$$
MOZ032>034-039>042-045>050-055>058-069>072-170800-
...CENTRAL MISSOURI...

CITY           SKY/WX    TMP DP  RH WIND       PRES   REMARKS
COLUMBIA         N/A    N/A N/A N/A MISG      30.06F
JEFFERSON CITY CLOUDY    55  54  96 SE5       30.06F
ROLLA          CLOUDY    57  54  89 SE6       30.05F
SEDALIA        CLOUDY    62  58  86 SE6       30.03F
WHITEMAN AFB   CLOUDY    61  59  91 SE5       30.02F
OSAGE BEACH    CLOUDY    61  55  82 SE3       30.05F

$$
MOZ051-052-059>065-170800-
...EAST CENTRAL MISSOURI...

CITY           SKY/WX    TMP DP  RH WIND       PRES   REMARKS
ST LOUIS INTL  CLEAR     54  49  83 CALM      30.09S
SPIRIT OF STL  CLEAR     48  48 100 CALM      30.07F FOG
ST CHARLES     MOCLDY    48  47  96 CALM      30.08S FOG

$$
MOZ072>076-082>087-097>100-106>115-170800-
...SOUTH CENTRAL AND SOUTHEAST MISSOURI...

CITY           SKY/WX    TMP DP  RH WIND       PRES   REMARKS
CAPE GIRARDEAU CLEAR     49  47  93 CALM      30.09F FOG
FARMINGTON     PTCLDY    52  50  93 CALM      30.10F
POPLAR BLUFF   CLOUDY    57  52  83 CALM      30.08F
WEST PLAINS    CLOUDY    63  59  87 CALM      30.09S

$$


USA.gov is the U.S. government's official web portal to all federal, state and local government web resources and services.